map of PMG home
PMG - Airport
Location
City:  Ponta Porã, Mato Grosso do Sul, Brazil
Name:Ponta Porã International Airport
ICAO:SBPP
IATA:PMG

Details
Type:Airport (Aerodrome, Airfield)
Use:Public/Civil, International (customs port of entry)
Latitude:22°32'59"S (-22.549721)
Longitude:55°42'09"W (-55.702499)
Elevation:2156 ft (657 m)
Variation:16.55°W (WMM2015v2 magnetic declination)
-0.17° annual change
Runways:1
Longest:6562 × 148 ft (2000 × 45 m), paved

Time
Time Zone:UTC-4 (DST-3)
Local Time:

Weather
METAR:SBPP 041400Z 11004KT 9999 FEW015 27/20 Q1018

Related Locations
Nearby:
Farthest:HTR: 12323 mi / 19831 km
Hateruma [Hateruma Airport], 47, JP

Find:

   beyond  
but within

Other Information
Maps:
NOTAMs:
Links:
Sources:

  
  • flag of Brazil
  • flag of Mato Grosso do Sul
  

Sectional Chart

Flight Planning
at skyvector.com

Satellite Image

Google Maps Satellite view

 

Copyright © 2004-2019 Karl L. Swartz. All rights reserved.
The Great Circle Mapper name and logo are trademarks of the Great Circle Mapper.
All other trademarks mentioned herein belong to their respective owners.
Please see credits for attibutions and further copyright information.

  Follow gcmap on Facebook Follow gcmap on Twitter GCmap on LinkedIn

hCard Microformat

Geo Microformat